Location: Carrières
(48.9495°N, 2.0407°E)
Time: 22:12:46
(UTC+00:00)

ATLAS CENTAUR R/B - Pass Details

Date: 28 January 2023
Orbit: 449 x 650 km, 64.7° (Epoch: 28 March)

Event Time Altitude Azimuth Distance (km) Brightness Sun altitude
Rises 19:12:10 0° 231° (SW) 2,987 5.8 -24.5°
Reaches altitude 10° 19:14:32 10° 235° (SW) 2,069 4.9 -24.9°
Maximum altitude 19:19:11 56° 314° (NW) 771 2.1 -25.7°
Enters shadow 19:19:47 51° 345° (NNW) 807 2.1 -25.8°
